Content
SEND FEEDBACK

Daily
Averages
Monthly
Summary
United States of America

LONE WOLF, OKLAHOMA


Home > North America > United States > Oklahoma
Elevation: 1537 feet     Latitude: 34 53N     Longitude: 099 18W

WEATHER
 
SELECT A DAY
Number of Records: 223,719;   Date Range: 5/16/05 - 8/28/14
 
SHARE

PRINT THIS DATA

[ ← Previous Day ]
WEATHER ALMANAC - JANUARY 31, 2013
[ Next Day → ]
[ °C ]   °F
Weather ElementAverageHighLow
Temperature41 °F64.4 °F (3:15 pm)26.6 °F (7:55 am)
Dewpoint21 °F30.2 °F (5:55 pm)12.2 °F (6:15 am)
Humidity48.5 %75 % (9:35 pm)18 % (3:35 pm)
Barometer30.15 in30.38 in (11:55 pm)30.05 in (4:35 am)
Wind Speed8.6 mph26.5 mph (8:35 pm)
Wind Gust32.2 mph (8:15 pm)
Weather ElementAverage
Visibility10 mi
Wind DirectionESE (118.7 °)

Weather ElementTotal
Precipitation---
Heating Degree Days19.5 (Base 65)
Averaged from 70 records on January 31, 2013
WEATHER CONDITIONS BREAKOUT
WIND DIRECTION BREAKOUT
WEATHER BY HOUR - JANUARY 31, 2013
[ °C ]   °F
Local TimeTemperatureDewpointHumidityBarometerVisibilityWind DirectionWind SpeedGust SpeedPrecipitationEventsConditions
12:35 AM32.0 °F15.8 °F51 %30.09 in10.0 miCalmClear
12:55 AM32.0 °F15.8 °F51 %30.09 in10.0 miCalmClear
1:15 AM32.0 °F17.6 °F55 %30.08 in10.0 miNNW (340°)3.5 mphClear
1:35 AM30.2 °F15.8 °F55 %30.08 in10.0 miCalmClear
1:55 AM32.0 °F15.8 °F51 %30.07 in10.0 miNNW (330°)3.5 mphClear
2:15 AM32.0 °F15.8 °F51 %30.07 in10.0 miCalmClear
2:35 AM32.0 °F14.0 °F48 %30.07 in10.0 miCalmClear
2:55 AM32.0 °F14.0 °F48 %30.06 in10.0 miSW (230°)3.5 mphClear
3:15 AM28.4 °F15.8 °F59 %30.06 in10.0 miSW (220°)4.6 mphClear
3:35 AM30.2 °F14.0 °F51 %30.06 in10.0 miCalmClear
3:55 AM28.4 °F14.0 °F55 %30.06 in10.0 miSouth (190°)3.5 mphClear
4:15 AM30.2 °F14.0 °F51 %30.06 in10.0 miCalmClear
4:35 AM30.2 °F14.0 °F51 %30.05 in10.0 miSSW (210°)4.6 mphClear
4:55 AM28.4 °F14.0 °F55 %30.05 in10.0 miCalmClear
5:15 AM28.4 °F14.0 °F55 %30.06 in10.0 miNorth (350°)3.5 mphClear
5:35 AM28.4 °F14.0 °F55 %30.07 in10.0 miNorth (360°)4.6 mphClear
5:55 AM30.2 °F14.0 °F51 %30.06 in10.0 miCalmClear
6:15 AM32.0 °F12.2 °F44 %30.06 in10.0 miCalmClear
6:55 AM28.4 °F14.0 °F55 %30.06 in10.0 miSSW (200°)3.5 mphClear
7:15 AM30.2 °F14.0 °F51 %30.06 in10.0 miSW (220°)4.6 mphClear
7:35 AM30.2 °F14.0 °F51 %30.07 in10.0 miSW (230°)4.6 mphClear
7:55 AM26.6 °F14.0 °F59 %30.08 in10.0 miSW (230°)4.6 mphClear
8:15 AM26.6 °F17.6 °F69 %30.09 in10.0 miCalmClear
8:35 AM28.4 °F17.6 °F64 %30.10 in10.0 miCalmClear
8:55 AM32.0 °F17.6 °F55 %30.10 in10.0 miCalmClear
9:15 AM32.0 °F17.6 °F55 %30.10 in10.0 miNW (310°)3.5 mphClear
9:35 AM35.6 °F21.2 °F56 %30.11 in10.0 miNNW (330°)6.9 mphClear
9:55 AM37.4 °F21.2 °F52 %30.11 in10.0 miNNW (330°)8.1 mphClear
10:15 AM42.8 °F21.2 °F42 %30.12 in10.0 miNW (320°)10.4 mphClear
10:35 AM44.6 °F23.0 °F43 %30.13 in10.0 miNW (320°)8.1 mphClear
10:55 AM46.4 °F23.0 °F40 %30.13 in10.0 miNNW (330°)4.6 mphClear
11:15 AM46.4 °F23.0 °F40 %30.13 in10.0 miNW (320°)4.6 mphClear
11:35 AM50.0 °F23.0 °F35 %30.13 in10.0 miCalmClear
11:55 AM50.0 °F23.0 °F35 %30.12 in10.0 miSW (220°)4.6 mphClear
12:15 PM53.6 °F24.8 °F33 %30.12 in10.0 miWest (280°)3.5 mphClear
12:35 PM55.4 °F23.0 °F29 %30.11 in10.0 miWest (260°)3.5 mphClear
12:55 PM57.2 °F24.8 °F29 %30.10 in10.0 miWSW (250°)5.8 mphClear
1:15 PM57.2 °F24.8 °F29 %30.09 in10.0 miWSW (240°)8.1 mphClear
1:35 PM59.0 °F24.8 °F27 %30.08 in10.0 miWest (260°)3.5 mphClear
1:55 PM60.8 °F23.0 °F23 %30.08 in10.0 miCalmClear
2:15 PM60.8 °F23.0 °F23 %30.07 in10.0 miSouth (170°)3.5 mphClear
2:35 PM62.6 °F23.0 °F22 %30.07 in10.0 miCalmClear
2:55 PM62.6 °F23.0 °F22 %30.07 in10.0 miCalmClear
3:15 PM64.4 °F21.2 °F19 %30.09 in10.0 miCalmClear
3:35 PM64.4 °F19.4 °F18 %30.09 in10.0 miNorth (10°)10.4 mphClear
3:55 PM64.4 °F19.4 °F18 %30.10 in10.0 miNNE (30°)11.5 mphClear
4:15 PM64.4 °F21.2 °F19 %30.11 in10.0 miENE (60°)8.1 mph18.4 mphClear
4:35 PM62.6 °F26.6 °F26 %30.14 in10.0 miNE (50°)19.6 mph29.9 mphClear
4:55 PM59.0 °F26.6 °F29 %30.17 in10.0 miENE (60°)24.2 mph29.9 mphClear
5:15 PM55.4 °F26.6 °F33 %30.19 in10.0 miNE (50°)21.9 mph28.8 mphClear
5:35 PM51.8 °F28.4 °F41 %30.21 in10.0 miNE (50°)23.0 mph27.6 mphClear
5:55 PM50.0 °F30.2 °F47 %30.23 in10.0 miNE (50°)20.7 mph27.6 mphClear
6:15 PM46.4 °F28.4 °F50 %30.24 in10.0 miNE (50°)20.7 mph27.6 mphClear
6:35 PM46.4 °F28.4 °F50 %30.25 in10.0 miNE (40°)23.0 mph28.8 mphClear
6:55 PM44.6 °F28.4 °F53 %30.26 in10.0 miNE (50°)23.0 mph29.9 mphClear
7:15 PM42.8 °F28.4 °F57 %30.28 in10.0 miNE (50°)23.0 mph28.8 mphClear
7:35 PM42.8 °F28.4 °F57 %30.28 in10.0 miNE (50°)23.0 mph31.1 mphClear
7:55 PM41.0 °F28.4 °F61 %30.30 in10.0 miNE (50°)24.2 mph28.8 mphClear
8:15 PM39.2 °F28.4 °F65 %30.31 in10.0 miNE (50°)21.9 mph32.2 mphClear
8:35 PM37.4 °F28.4 °F70 %30.31 in10.0 miNE (40°)26.5 mph31.1 mphClear
8:55 PM37.4 °F28.4 °F70 %30.32 in10.0 miNE (50°)24.2 mph28.8 mphClear
9:15 PM35.6 °F26.6 °F70 %30.33 in10.0 miNE (50°)18.4 mph27.6 mphClear
9:35 PM33.8 °F26.6 °F75 %30.33 in10.0 miNE (50°)20.7 mph25.3 mphClear
9:55 PM33.8 °F24.8 °F70 %30.33 in10.0 miNE (40°)20.7 mph26.5 mphClear
10:15 PM32.0 °F24.8 °F75 %30.34 in10.0 miNE (50°)21.9 mph26.5 mphClear
10:35 PM32.0 °F23.0 °F69 %30.35 in10.0 miNE (40°)4.6 mphClear
10:55 PM32.0 °F23.0 °F69 %30.35 in10.0 miENE (60°)6.9 mphClear
11:15 PM32.0 °F23.0 °F69 %30.36 in10.0 miENE (70°)12.7 mph21.9 mphClear
11:35 PM30.2 °F21.2 °F69 %30.37 in10.0 miNE (50°)8.1 mphClear
11:55 PM30.2 °F21.2 °F69 %30.38 in10.0 miENE (60°)11.5 mph19.6 mphClear
Hourly data recorded from KAXS, located miles away from Lone Wolf, Oklahoma







STORIES FROM OUR PARTNERS